Location: Kerb�bon
(47.7970°N, 3.3487°W)
Time: 12:07:09
(UTC+00:00)

Cosmos 2341 Rocket - Pass Details

Date: 12 May 2021
Orbit: 969 x 1004 km, 82.9° (Epoch: 18 June)

Event Time Altitude Azimuth Distance (km) Brightness Sun altitude
Rises 22:21:03 0° 352° (N) 3,743 8.4 -19.5°
Reaches altitude 10° 22:23:37 10° 354° (N) 2,790 7.4 -19.7°
Maximum altitude 22:30:01 72° 79° (E) 1,056 4.1 -20.2°
Enters shadow 22:32:47 36° 155° (SSE) 1,533 4.5 -20.3°
